CW1550 Weather Reports


time (UTC)temp
C
wind
direction
speed
KPH
gust
KPH
rain 1hr
cm
rain 24hr
cm
rain mn
cm
humidity
%
barometer
mb
20260504050010 7 242 0.0 0.0 0.00 0.00 0.00 68 1013.6
20260504045505 7 242 0.0 1.6 0.00 0.00 0.00 68 1013.7
20260504045005 7 242 0.0 0.0 0.00 0.00 0.00 68 1013.7
20260504044505 7 242 0.0 0.0 0.00 0.00 0.00 68 1013.7
20260504044005 7 242 0.0 0.0 0.00 0.00 0.00 68 1013.7
20260504043506 7 242 0.0 0.0 0.00 0.00 0.00 67 1013.6
20260504043010 7 242 0.0 0.0 0.00 0.00 0.00 67 1013.5
20260504042505 7 242 0.0 3.2 0.00 0.00 0.00 67 1013.5
20260504042005 7 242 0.0 3.2 0.00 0.00 0.00 67 1013.5
20260504041504 7 242 1.6 3.2 0.00 0.00 0.00 67 1013.5
20260504041005 7 242 0.0 1.6 0.00 0.00 0.00 67 1013.4
20260504040505 7 242 0.0 3.2 0.00 0.00 0.00 67 1013.4
20260504040010 7 243 1.6 3.2 0.00 0.00 0.00 66 1013.4
20260504035505 7 243 1.6 3.2 0.00 0.00 0.00 67 1013.4
20260504035004 7 242 1.6 4.8 0.00 0.00 0.00 67 1013.3
20260504034504 7 239 0.0 1.6 0.00 0.00 0.00 66 1013.3
20260504034005 7 239 1.6 3.2 0.00 0.00 0.00 67 1013.3
20260504033504 7 241 0.0 4.8 0.00 0.00 0.00 67 1013.2
20260504032004 8 242 0.0 0.0 0.00 0.00 0.00 66 1013.1
20260504031504 8 242 0.0 0.0 0.00 0.00 0.00 66 1013.1
20260504031005 8 242 0.0 0.0 0.00 0.00 0.00 65 1013.0
20260504030505 8 242 0.0 0.0 0.00 0.00 0.00 65 1013.0
20260504030010 8 242 0.0 0.0 0.00 0.00 0.00 64 1013.0
20260504025505 8 242 0.0 0.0 0.00 0.00 0.00 64 1013.1
20260504025005 8 242 0.0 0.0 0.00 0.00 0.00 62 1013.1
20260504024005 9 242 0.0 0.0 0.00 0.00 0.00 60 1013.0
20260504023504 9 242 0.0 0.0 0.00 0.00 0.00 59 1013.0
20260504023010 9 242 0.0 0.0 0.00 0.00 0.00 58 1013.0
20260504022505 9 242 0.0 0.0 0.00 0.00 0.00 59 1013.1
20260504022005 9 242 0.0 0.0 0.00 0.00 0.00 58 1013.0
20260504021505 10 242 0.0 0.0 0.00 0.00 0.00 57 1013.0
20260504021004 10 242 0.0 0.0 0.00 0.00 0.00 57 1013.0
20260504020505 10 242 0.0 0.0 0.00 0.00 0.00 57 1013.0
20260504020010 10 242 0.0 0.0 0.00 0.00 0.00 56 1012.9
20260504015505 10 242 0.0 0.0 0.00 0.00 0.00 56 1012.9
20260504015006 10 242 0.0 0.0 0.00 0.00 0.00 56 1012.8
20260504014005 10 242 0.0 0.0 0.00 0.00 0.00 53 1012.9
20260504013504 11 242 0.0 0.0 0.00 0.00 0.00 51 1012.8
20260504013010 11 242 0.0 0.0 0.00 0.00 0.00 51 1012.8
20260504012504 11 242 0.0 0.0 0.00 0.00 0.00 52 1012.8
20260504012004 11 242 0.0 0.0 0.00 0.00 0.00 52 1012.8
20260504011505 11 242 0.0 0.0 0.00 0.00 0.00 50 1012.7
20260504010505 11 242 0.0 0.0 0.00 0.00 0.00 47 1012.6
20260504010010 12 242 0.0 0.0 0.00 0.00 0.00 49 1012.7
20260504005504 12 242 0.0 0.0 0.00 0.00 0.00 46 1012.6
20260504005004 12 242 0.0 0.0 0.00 0.00 0.00 46 1012.5
20260504004504 12 242 0.0 0.0 0.00 0.00 0.00 45 1012.4
20260504003504 12 242 0.0 1.6 0.00 0.00 0.00 43 1012.3
20260504003009 12 242 1.6 3.2 0.00 0.00 0.00 42 1012.4
20260504002005 13 242 0.0 0.0 0.00 0.00 0.00 43 1012.3
20260504001504 13 242 0.0 0.0 0.00 0.00 0.00 41 1012.1
20260504001004 13 242 0.0 0.0 0.00 0.00 0.00 40 1012.1
20260504000505 13 242 0.0 0.0 0.00 0.00 0.00 40 1012.1
20260503235004 15 242 1.6 4.8 0.00 0.00 0.00 37 1012.0
20260503234004 15 233 4.8 8.0 0.00 0.00 0.00 35 1011.9
20260503233504 15 274 0.0 3.2 0.00 0.00 0.00 36 1011.8
20260503233010 15 274 0.0 1.6 0.00 0.00 0.00 37 1011.7
20260503232504 15 274 1.6 1.6 0.00 0.00 0.00 36 1011.7
20260503232005 16 274 3.2 4.8 0.00 0.00 0.00 34 1011.6
20260503231004 16 278 0.0 4.8 0.00 0.00 0.00 34 1011.6
20260503230010 16 152 3.2 9.7 0.00 0.00 0.00 33 1011.7
20260503225504 16 260 1.6 3.2 0.00 0.00 0.00 32 1011.7
20260503225005 16 261 3.2 8.0 0.00 0.00 0.00 31 1011.6
20260503224504 16 235 3.2 14.5 0.00 0.00 0.00 30 1011.7
20260503224005 17 294 6.4 16.1 0.00 0.00 0.00 30 1011.8
20260503223505 17 349 1.6 4.8 0.00 0.00 0.00 32 1011.7
20260503223011 17 11 3.2 11.3 0.00 0.00 0.00 31 1011.6
20260503222505 17 282 12.9 20.9 0.00 0.00 0.00 29 1011.7
20260503221505 17 274 4.8 16.1 0.00 0.00 0.00 29 1011.7
20260503221004 17 268 4.8 11.3 0.00 0.00 0.00 28 1011.7
20260503220504 18 314 3.2 9.7 0.00 0.00 0.00 29 1011.7
20260503220010 18 170 4.8 11.3 0.00 0.00 0.00 28 1011.6
20260503215505 18 211 3.2 19.3 0.00 0.00 0.00 28 1011.7
20260503215004 18 273 9.7 16.1 0.00 0.00 0.00 27 1011.6
20260503214505 18 325 9.7 14.5 0.00 0.00 0.00 28 1011.6
20260503214004 18 336 9.7 19.3 0.00 0.00 0.00 27 1011.7
20260503213009 18 287 14.5 20.9 0.00 0.00 0.00 27 1011.6
20260503212504 18 349 14.5 19.3 0.00 0.00 0.00 27 1011.5
20260503212004 18 352 9.7 25.7 0.00 0.00 0.00 28 1011.6
20260503211005 18 229 11.3 20.9 0.00 0.00 0.00 28 1011.5
20260503210504 18 245 9.7 20.9 0.00 0.00 0.00 28 1011.5
20260503210010 18 216 4.8 9.7 0.00 0.00 0.00 29 1011.7
20260503205005 18 339 6.4 29.0 0.00 0.00 0.00 28 1011.7
20260503204504 18 265 4.8 16.1 0.00 0.00 0.00 30 1011.7
20260503204004 17 276 4.8 20.9 0.00 0.00 0.00 31 1011.9
20260503203504 17 245 6.4 32.2 0.00 0.00 0.00 29 1011.8
20260503203011 17 327 16.1 32.2 0.00 0.00 0.00 29 1011.9
20260503202504 17 297 9.7 22.5 0.00 0.00 0.00 29 1012.0
20260503200010 17 262 11.3 29.0 0.00 0.00 0.00 32 1012.1
20260503194504 16 236 11.3 22.5 0.00 0.00 0.00 31 1012.4
20260503194004 16 335 11.3 24.1 0.00 0.00 0.00 32 1012.6
20260503193505 16 291 9.7 24.1 0.00 0.00 0.00 35 1012.6
20260503193010 16 187 6.4 16.1 0.00 0.00 0.00 34 1012.6
20260503192504 16 280 9.7 24.1 0.00 0.00 0.00 32 1012.7
20260503192004 16 277 9.7 24.1 0.00 0.00 0.00 32 1012.8
20260503191504 17 237 11.3 20.9 0.00 0.00 0.00 31 1012.8
20260503190504 17 305 14.5 24.1 0.00 0.00 0.00 32 1012.9
20260503185504 16 295 8.0 16.1 0.00 0.00 0.00 32 1013.0
20260503185004 16 307 11.3 25.7 0.00 0.00 0.00 32 1013.0
20260503184504 16 316 14.5 27.4 0.00 0.00 0.00 32 1013.1
20260503184005 16 330 12.9 20.9 0.00 0.00 0.00 33 1013.1
20260503183504 16 233 14.5 25.7 0.00 0.00 0.00 32 1013.2
20260503183009 16 290 14.5 22.5 0.00 0.00 0.00 33 1013.2
20260503182505 16 15 9.7 20.9 0.00 0.00 0.00 34 1013.3
20260503182006 15 314 8.0 19.3 0.00 0.00 0.00 33 1013.5
20260503181505 15 41 11.3 27.4 0.00 0.00 0.00 33 1013.4
20260503181004 15 324 19.3 35.4 0.00 0.00 0.00 33 1013.6
20260503180504 15 260 12.9 25.7 0.00 0.00 0.00 32 1013.5
20260503180009 15 299 9.7 27.4 0.00 0.00 0.00 36 1013.5
20260503175004 15 310 14.5 27.4 0.00 0.00 0.00 35 1013.7
20260503174504 15 314 17.7 24.1 0.00 0.00 0.00 34 1013.7
20260503174004 15 347 16.1 24.1 0.00 0.00 0.00 34 1013.8
20260503173504 15 338 8.0 14.5 0.00 0.00 0.00 36 1013.8
20260503173011 15 294 8.0 25.7 0.00 0.00 0.00 34 1013.7
20260503172504 15 343 17.7 27.4 0.00 0.00 0.00 34 1013.7
20260503172004 15 258 8.0 16.1 0.00 0.00 0.00 36 1013.7
20260503171504 15 339 9.7 20.9 0.00 0.00 0.00 35 1013.8
20260503151004 12 307 14.5 20.9 0.00 0.00 0.00 38 1014.4
20260503150504 12 282 17.7 33.8 0.00 0.00 0.00 37 1014.4
20260503131006 8 339 16.1 32.2 0.00 0.00 0.00 51 1014.7
20260503130506 8 327 17.7 29.0 0.00 0.00 0.00 51 1014.9
20260503110505 5 300 6.4 14.5 0.00 0.00 0.00 67 1013.8
20260503090504 5 323 3.2 12.9 0.00 0.00 0.00 71 1012.3
20260503081505 5 324 0.0 3.2 0.00 0.00 0.00 71 1012.0
20260503080505 5 286 1.6 12.9 0.00 0.00 0.00 71 1011.9
20260503072505 5 289 6.4 12.9 0.00 0.00 0.00 71 1011.5
20260503071506 5 305 0.0 14.5 0.00 0.00 0.00 71 1011.4
20260503071006 5 336 1.6 11.3 0.00 0.00 0.00 71 1011.4